Previsão horária em Jugowiec

Hoje, 22 Junho, Terça-feira

Tempo Temperatura Precipitação Vento Pressão Humidade
00:00 +20°C° 0 mm 1 m/s 743 mmHg 88%
01:00 +21°C° 0 mm 1 m/s 743 mmHg 86%
02:00 +20°C° 0.2 mm 1 m/s 743 mmHg 87%
03:00 +20°C° 0.2 mm 1 m/s 743 mmHg 87%
04:00 +19°C° 0.2 mm 2 m/s 743 mmHg 88%
05:00 +20°C° 0.3 mm 3 m/s 744 mmHg 87%
06:00 +21°C° 0.3 mm 4 m/s 744 mmHg 87%
07:00 +22°C° 0.3 mm 5 m/s 744 mmHg 87%
08:00 +21°C° 0.2 mm 5 m/s 745 mmHg 88%
09:00 +21°C° 0.2 mm 5 m/s 745 mmHg 89%
10:00 +21°C° 0.2 mm 5 m/s 745 mmHg 90%
11:00 +21°C° 0.1 mm 5 m/s 746 mmHg 90%
12:00 +21°C° 0.1 mm 5 m/s 746 mmHg 90%
13:00 +20°C° 0.1 mm 5 m/s 746 mmHg 90%
14:00 +21°C° 0 mm 5 m/s 746 mmHg 87%
15:00 +21°C° 0 mm 5 m/s 747 mmHg 85%
16:00 +21°C° 0 mm 5 m/s 747 mmHg 82%
17:00 +21°C° 0 mm 5 m/s 747 mmHg 83%
18:00 +20°C° 0 mm 5 m/s 747 mmHg 83%
19:00 +19°C° 0 mm 5 m/s 747 mmHg 83%
20:00 +19°C° 0 mm 4 m/s 748 mmHg 86%
21:00 +18°C° 0 mm 3 m/s 748 mmHg 89%
22:00 +17°C° 0 mm 3 m/s 749 mmHg 92%
23:00 +17°C° 0 mm 2 m/s 749 mmHg 92%

Amanhã, 23 Junho, Quarta-feira

Tempo Temperatura Precipitação Vento Pressão Humidade
00:00 +16°C° 0 mm 2 m/s 749 mmHg 93%
01:00 +16°C° 0 mm 2 m/s 749 mmHg 94%
02:00 +16°C° 0 mm 2 m/s 749 mmHg 93%
03:00 +15°C° 0 mm 2 m/s 749 mmHg 93%
04:00 +15°C° 0 mm 2 m/s 749 mmHg 92%
05:00 +16°C° 0 mm 2 m/s 750 mmHg 87%
06:00 +17°C° 0 mm 2 m/s 750 mmHg 82%
07:00 +18°C° 0 mm 2 m/s 751 mmHg 76%
08:00 +19°C° 0 mm 2 m/s 751 mmHg 71%
09:00 +20°C° 0 mm 2 m/s 751 mmHg 66%
10:00 +23°C° 0 mm 2 m/s 751 mmHg 61%
11:00 +24°C° 0 mm 2 m/s 751 mmHg 59%
12:00 +24°C° 0 mm 2 m/s 751 mmHg 57%
13:00 +25°C° 0 mm 2 m/s 751 mmHg 55%
14:00 +25°C° 0.1 mm 2 m/s 751 mmHg 56%
15:00 +26°C° 0.1 mm 2 m/s 751 mmHg 56%
16:00 +26°C° 0.1 mm 1 m/s 751 mmHg 57%
17:00 +25°C° 0 mm 1 m/s 751 mmHg 62%
18:00 +24°C° 0 mm 1 m/s 751 mmHg 66%
19:00 +24°C° 0 mm 1 m/s 751 mmHg 71%
20:00 +23°C° 0 mm 1 m/s 751 mmHg 73%
21:00 +21°C° 0 mm 1 m/s 751 mmHg 75%
22:00 +20°C° 0 mm 1 m/s 751 mmHg 77%
23:00 +20°C° 0 mm 1 m/s 751 mmHg 78%

Depois de amanhã, 24 Junho, Quinta-feira

Tempo Temperatura Precipitação Vento Pressão Humidade
00:00 +20°C° 0 mm 1 m/s 751 mmHg 80%
01:00 +19°C° 0 mm 1 m/s 751 mmHg 81%
02:00 +19°C° 0.1 mm 1 m/s 750 mmHg 82%
03:00 +19°C° 0.1 mm 1 m/s 750 mmHg 82%
04:00 +19°C° 0.1 mm 1 m/s 750 mmHg 83%
05:00 +19°C° 0.2 mm 1 m/s 750 mmHg 83%
06:00 +20°C° 0.2 mm 1 m/s 750 mmHg 83%
07:00 +19°C° 0.2 mm 2 m/s 750 mmHg 83%
08:00 +21°C° 0.2 mm 2 m/s 750 mmHg 81%
09:00 +23°C° 0.2 mm 2 m/s 750 mmHg 80%
10:00 +24°C° 0.2 mm 3 m/s 750 mmHg 78%
11:00 +24°C° 0.2 mm 2 m/s 750 mmHg 80%
12:00 +24°C° 0.2 mm 2 m/s 749 mmHg 81%
13:00 +23°C° 0.2 mm 2 m/s 749 mmHg 83%
14:00 +22°C° 0.1 mm 3 m/s 749 mmHg 84%
15:00 +21°C° 0.1 mm 4 m/s 749 mmHg 85%
16:00 +21°C° 0.1 mm 5 m/s 749 mmHg 86%
17:00 +20°C° 0 mm 5 m/s 749 mmHg 88%
18:00 +20°C° 0 mm 4 m/s 749 mmHg 89%
19:00 +19°C° 0 mm 4 m/s 749 mmHg 90%
20:00 +19°C° 0.2 mm 4 m/s 749 mmHg 91%
21:00 +19°C° 0.2 mm 5 m/s 749 mmHg 91%
22:00 +17°C° 0.2 mm 5 m/s 749 mmHg 92%
23:00 +18°C° 2.4 mm 4 m/s 749 mmHg 94%

25 Junho, Sexta-feira

Tempo Temperatura Precipitação Vento Pressão Humidade
00:00 +18°C° 2.4 mm 3 m/s 749 mmHg 96%
01:00 +17°C° 2.4 mm 2 m/s 748 mmHg 98%
02:00 +17°C° 0.2 mm 2 m/s 748 mmHg 98%
03:00 +17°C° 0.2 mm 3 m/s 748 mmHg 98%
04:00 +17°C° 0.2 mm 3 m/s 748 mmHg 98%
05:00 +17°C° 0.1 mm 3 m/s 748 mmHg 98%
06:00 +17°C° 0.1 mm 3 m/s 748 mmHg 97%
07:00 +17°C° 0.1 mm 3 m/s 749 mmHg 96%
08:00 +18°C° 0.4 mm 3 m/s 749 mmHg 95%
09:00 +18°C° 0.4 mm 4 m/s 749 mmHg 94%
10:00 +18°C° 0.4 mm 4 m/s 749 mmHg 93%
11:00 +19°C° 0.1 mm 3 m/s 749 mmHg 90%
12:00 +19°C° 0.1 mm 3 m/s 749 mmHg 87%
13:00 +20°C° 0.1 mm 3 m/s 749 mmHg 84%
14:00 +20°C° 0.2 mm 3 m/s 749 mmHg 83%
15:00 +20°C° 0.2 mm 3 m/s 749 mmHg 81%
16:00 +21°C° 0.2 mm 3 m/s 749 mmHg 80%
17:00 +20°C° 0.1 mm 3 m/s 749 mmHg 80%
18:00 +20°C° 0.1 mm 4 m/s 749 mmHg 80%
19:00 +19°C° 0.1 mm 4 m/s 749 mmHg 81%
20:00 +19°C° 0.1 mm 4 m/s 749 mmHg 83%
21:00 +18°C° 0.1 mm 3 m/s 750 mmHg 85%
22:00 +17°C° 0.1 mm 3 m/s 750 mmHg 87%
23:00 +17°C° 0.1 mm 3 m/s 750 mmHg 87%

26 Junho, Sábado

Tempo Temperatura Precipitação Vento Pressão Humidade
00:00 +17°C° 0.1 mm 3 m/s 750 mmHg 88%
01:00 +16°C° 0.1 mm 3 m/s 750 mmHg 88%
02:00 +16°C° 0 mm 3 m/s 751 mmHg 89%
03:00 +14°C° 0 mm 3 m/s 751 mmHg 89%
04:00 +14°C° 0 mm 3 m/s 751 mmHg 90%
05:00 +16°C° 0 mm 3 m/s 751 mmHg 85%
06:00 +17°C° 0 mm 3 m/s 751 mmHg 79%
07:00 +18°C° 0 mm 4 m/s 752 mmHg 74%
08:00 +20°C° 0 mm 4 m/s 752 mmHg 68%
09:00 +21°C° 0 mm 4 m/s 752 mmHg 61%
10:00 +22°C° 0 mm 5 m/s 752 mmHg 55%
11:00 +23°C° 0 mm 4 m/s 752 mmHg 52%
12:00 +25°C° 0 mm 4 m/s 751 mmHg 49%
13:00 +25°C° 0 mm 4 m/s 751 mmHg 46%
14:00 +26°C° 0 mm 4 m/s 751 mmHg 45%
15:00 +26°C° 0 mm 3 m/s 751 mmHg 44%
16:00 +26°C° 0 mm 3 m/s 751 mmHg 43%
17:00 +25°C° 0 mm 2 m/s 751 mmHg 50%
18:00 +24°C° 0 mm 2 m/s 751 mmHg 56%
19:00 +23°C° 0 mm 1 m/s 750 mmHg 63%
20:00 +21°C° 0 mm 2 m/s 751 mmHg 66%
21:00 +20°C° 0 mm 2 m/s 751 mmHg 69%
22:00 +18°C° 0 mm 2 m/s 752 mmHg 71%
23:00 +18°C° 0 mm 2 m/s 752 mmHg 75%

27 Junho, Domingo

Tempo Temperatura Precipitação Vento Pressão Humidade
00:00 +17°C° 0 mm 2 m/s 752 mmHg 78%
01:00 +16°C° 0 mm 2 m/s 752 mmHg 81%
02:00 +16°C° 0 mm 2 m/s 752 mmHg 83%
03:00 +15°C° 0 mm 1 m/s 752 mmHg 86%
04:00 +15°C° 0 mm 1 m/s 752 mmHg 88%
05:00 +16°C° 0 mm 1 m/s 752 mmHg 83%
06:00 +19°C° 0 mm 1 m/s 752 mmHg 77%
07:00 +21°C° 0 mm 1 m/s 752 mmHg 72%
08:00 +22°C° 0 mm 1 m/s 752 mmHg 66%
09:00 +23°C° 0 mm 1 m/s 752 mmHg 60%
10:00 +24°C° 0 mm 1 m/s 752 mmHg 55%
11:00 +25°C° 0 mm 1 m/s 752 mmHg 53%
12:00 +25°C° 0 mm 2 m/s 752 mmHg 50%
13:00 +26°C° 0 mm 2 m/s 752 mmHg 48%
14:00 +26°C° 0 mm 2 m/s 752 mmHg 49%
15:00 +26°C° 0 mm 2 m/s 752 mmHg 49%
16:00 +26°C° 0 mm 1 m/s 752 mmHg 50%
17:00 +25°C° 0 mm 2 m/s 752 mmHg 56%
18:00 +24°C° 0 mm 2 m/s 752 mmHg 62%
19:00 +23°C° 0 mm 2 m/s 752 mmHg 67%
20:00 +21°C° 0 mm 2 m/s 752 mmHg 70%
21:00 +20°C° 0 mm 2 m/s 752 mmHg 73%
22:00 +18°C° 0 mm 2 m/s 752 mmHg 76%
23:00 +18°C° 0 mm 2 m/s 752 mmHg 78%
Mostrar mais

Necessitamos do seu Consentimento

A Meteoprog e os seus Fornecedores de Serviços podem armazenar e aceder a dados pessoais como cookies, identificadores do dispositivo ou outras tecnologias semelhantes existentes no seu dispositivo e processar estes dados para personalizar conteúdos e anúncios, assim como funcionalidades nas redes sociais e análise de tráfego.

  • Armazenar e/ou aceder a informações no seu dispositivo

    Os cookies, identificadores do dispositivo ou outras informações podem ser armazenados ou acedidos no seu dispositivo, para os fins acima indicados.

  • Anúncios e conteúdos personalizados, medição de anúncios e conteúdos, dados sobre o público-alvo e desenvolvimento de produtos

    Os anúncios e os conteúdos podem ser personalizados com base num perfil. Podem ser adicionados dados adicionais para uma maior personalização dos anúncios e dos conteúdos. A eficácia dos anúncios e dos conteúdos pode ser medida. Podem ser obtidas informações sobre o público que visualizou os anúncios e os conteúdos. Estes dados podem ser usados para desenvolver ou melhorar sistemas, softwares ou a experiência do utilizador.

Ao clicar em "Eu concordo”, permitirá o uso de cookies, identificadores do dispositivo e web beacons mencionados ou outras tecnologias semelhantes. As configurações do navegador do seu dispositivo podem ser alteradas.

Para certos fins, podem ser invocados interesses legítimos ao invés de consentimento. Pode ler mais informação sobre este assunto na nossa Política de Privacidade e Cookies.